Location: Unspecified
(0.0000°N, 0.0000°E)
Time: 18:54:54
(UTC+00:00)

Explorer 11/Cluster Stage 4 - Pass Details

Date: 28 November 2019
Orbit: 467 x 1259 km, 28.8° (Epoch: 05 December)

Event Time Altitude Azimuth Distance (km) Brightness Sun altitude
Rises 21:52:55 0° 320° (NW) 3,208 - -54.7°
Reaches altitude 10° 21:55:26 10° 330° (NNW) 2,410 - -55.2°
Maximum altitude 22:00:37 32° 33° (NNE) 1,561 - -56.2°
Drops below altitude 10° 22:06:51 10° 93° (E) 2,921 - -57.3°
Sets 22:10:11 0° 102° (ESE) 3,993 - -58.0°
